Details From LFMK - Salvaza
To LEVD - Valladolid - Villanubla
Flight Number -
Tags Generated
Created
Modified
Stats Distance 330 nm / 611 km
Max Altitude 0 ft / 0 m
Waypoints 3
Social Downloads 1
Likes 0
Share VATSIM

Download

Looking for another format? Having issues loading an existing format? Contact us
Advertisement - Login to hide

Notes

Generated

Route

LFMK VLD LEVD

ID Type Via Altitude Latitude Longitude Leg Dist Tot Dist Heading (true) Name
O LFMK APT - 0 ft / 0 m 43.21714˚ 2.29266˚ - 0 nm - -
VLD NDB - 0 ft / 0 m 41.78949˚ -4.73908˚ 322 nm 322 nm 257° / 252° VALLADOLID NDB
O LEVD APT - 0 ft / 0 m 41.71332˚ -4.86181˚ 7 nm 329 nm 230° / 230° Valladolid - Villanubla

Altitude Profile

Advertisement - Login to hide

Weather


0- 5 10 15 20 25 30 35+ Temperature / ° C

Clouds and Precipitation
Forecast for 2018-05-23 12:00 UTC. Updated 17 minutes ago

Ground ~20,000 ft ~40,000 ft Winds

LFMK

Details ICAO LFMK (CCF)
Name Salvaza
Region France
Timezone Europe/Paris (UTC+2.0)
Stats Elevation 433 ft / 132 m (AMSL)
Location 43.216122° 2.305496°
Runways 1
Magnetic Variation 0.887° E

METAR

LFMK 230930Z AUTO 29008KT CAVOK 22/14 Q1017 NOSIG

Decode

TAF

TAF LFMK 230800Z 2309/2409 27004KT CAVOK BECMG 2318/2320 08010KT TEMPO 2403/2407 2000 BR BKN010

Decode

Departure Runways

ID Width Length Bearing (true) Bearing (mag) Surface Threshold Offset Overrun Length
10 148 ft / 45 m 6,869 ft / 2,094 m 96.20° 95.31° Asphalt 479 ft / 146 m 0 ft / 0 m
28 148 ft / 45 m 6,869 ft / 2,094 m 276.22° 275.33° Asphalt 492 ft / 150 m 0 ft / 0 m

LEVD

Details ICAO LEVD (VLL)
Name Valladolid - Villanubla
Region Spain
Timezone Europe/Madrid (UTC+2.0)
Stats Elevation 2,775 ft / 846 m (AMSL)
Location 41.708270° -4.855278°
Runways 2
Magnetic Variation 1.077° W

METAR

LEVD 230930Z 16003KT 100V230 CAVOK 19/12 Q1018

Decode

TAF

TAF LEVD 230500Z 2306/2406 VRB05KT CAVOK TX26/2315Z TN13/2406Z PROB40 TEMPO 2313/2319 SHRA SCT035TCU PROB30 TEMPO 2314/2319 4000 TS SHRA FEW035CB

Decode

Destination Runways

ID Width Length Bearing (true) Bearing (mag) Surface Threshold Offset Overrun Length
05 197 ft / 60 m 9,851 ft / 3,003 m 45.09° 46.17° Asphalt 0 ft / 0 m 676 ft / 206 m
15 197 ft / 60 m 2,975 ft / 907 m 144.18° 145.26° Dirt 0 ft / 0 m 213 ft / 65 m
23 197 ft / 60 m 9,851 ft / 3,003 m 225.10° 226.18° Asphalt 0 ft / 0 m 164 ft / 50 m
33 197 ft / 60 m 2,975 ft / 907 m 324.18° 325.26° Dirt 0 ft / 0 m 656 ft / 200 m

Approach Navaids

Runway Type Ident Frequency Range Bearing (true) Bearing (mag) Slope Elevation
23 Localiser IVD 109.30 MHz 18 nm / 33 km 225.13° 226.21° - 2,779 ft / 847 m (AMSL)
23 Glidescope IVD 109.30 MHz 10 nm / 19 km 225.10° 226.17° 2.80° 2,775 ft / 846 m (AMSL)